QPF
0.01 0.01 0.01 0.01 0.01 0.01 0.01 0.00 0.00 0.01 0.01 0.00 0.01 0.00 0.00 0.00 0.00 0.00 0.00 0.00 0.00 0.00 0.00 0.00 0.00 0.00 0.00 0.00 0.00 0.01 0.02 0.03 0.05 0.07 0.07 0.04 0.02 0.01 0.01 0.02 0.02 0.02 0.02 0.01
0.02 0.01 0.01 0.00 0.01 0.01 0.02 0.01 0.00 0.01 0.00 0.01 0.01 0.00 0.00 0.00 0.00 0.00 0.00 0.00 0.00 0.00 0.00 0.00 0.00 0.00 0.00 0.00 0.00 0.00 0.01 0.01 0.03 0.05 0.07 0.06 0.04 0.02 0.02 0.02 0.02 0.01 0.02 0.01
0.02 0.01 0.00 0.00 0.00 0.01 0.01 0.01 0.00 0.00 0.00 0.01 0.00 0.00 0.00 0.00 0.00 0.00 0.00 0.00 0.00 0.00 0.00 0.00 0.00 0.00 0.00 0.00 0.00 0.00 0.00 0.01 0.02 0.04 0.06 0.06 0.07 0.06 0.04 0.03 0.02 0.01 0.02 0.02
0.02 0.01 0.00 0.00 0.00 0.01 0.01 0.00 0.00 0.00 0.00 0.01 0.00 0.00 0.00 0.00 0.00 0.00 0.00 0.00 0.00 0.00 0.00 0.00 0.00 0.00 0.00 0.00 0.00 0.00 0.00 0.01 0.01 0.02 0.04 0.03 0.05 0.07 0.06 0.04 0.03 0.02 0.02 0.01
0.02 0.01 0.01 0.00 0.00 0.00 0.01 0.00 0.00 0.00 0.00 0.01 0.00 0.00 0.00 0.00 0.00 0.00 0.00 0.00 0.00 0.00 0.00 0.00 0.00 0.00 0.00 0.00 0.00 0.00 0.00 0.00 0.01 0.01 0.01 0.02 0.03 0.05 0.07 0.06 0.05 0.04 0.03 0.03
0.02 0.01 0.01 0.00 0.00 0.00 0.00 0.00 0.00 0.01 0.01 0.01 0.00 0.00 0.00 0.00 0.00 0.00 0.00 0.00 0.00 0.00 0.00 0.00 0.00 0.00 0.00 0.00 0.00 0.00 0.00 0.00 0.01 0.01 0.01 0.02 0.02 0.02 0.03 0.04 0.04 0.05 0.05 0.05
0.02 0.01 0.01 0.00 0.00 0.00 0.01 0.01 0.02 0.02 0.01 0.01 0.00 0.00 0.00 0.00 0.00 0.00 0.00 0.00 0.00 0.00 0.00 0.00 0.00 0.00 0.01 0.01 0.01 0.01 0.01 0.02 0.02 0.02 0.02 0.02 0.01 0.01 0.02 0.03 0.04 0.04 0.05 0.05
0.01 0.01 0.01 0.00 0.01 0.01 0.01 0.01 0.01 0.01 0.01 0.01 0.00 0.00 0.00 0.00 0.00 0.00 0.00 0.00 0.00 0.00 0.00 0.00 0.00 0.00 0.01 0.01 0.01 0.01 0.01 0.02 0.02 0.02 0.02 0.01 0.01 0.01 0.01 0.02 0.02 0.02 0.03 0.03
0.01 0.01 0.01 0.00 0.00 0.01 0.01 0.01 0.01 0.01 0.01 0.00 0.00 0.01 0.00 0.00 0.00 0.00 0.00 0.00 0.00 0.00 0.00 0.00 0.00 0.00 0.00 0.00 0.00 0.00 0.01 0.01 0.01 0.01 0.01 0.01 0.01 0.01 0.01 0.01 0.01 0.01 0.01 0.02
0.01 0.02 0.01 0.00 0.00 0.01 0.00 0.00 0.01 0.02 0.02 0.01 0.00 0.00 0.00 0.00 0.00 0.00 0.00 0.00 0.00 0.00 0.00 0.00 0.00 0.00 0.00 0.00 0.00 0.00 0.00 0.01 0.01 0.01 0.01 0.01 0.01 0.01 0.01 0.01 0.01 0.01 0.01 0.01
0.01 0.02 0.01 0.00 0.01 0.01 0.01 0.01 0.01 0.02 0.01 0.01 0.01 0.01 0.01 0.00 0.00 0.00 0.00 0.00 0.00 0.00 0.00 0.00 0.00 0.00 0.00 0.00 0.00 0.00 0.00 0.00 0.01 0.01 0.01 0.01 0.01 0.01 0.01 0.01 0.01 0.01 0.01 0.01
0.01 0.03 0.02 0.01 0.00 0.00 0.01 0.01 0.02 0.03 0.02 0.01 0.01 0.01 0.01 0.01 0.01 0.00 0.01 0.01 0.00 0.00 0.00 0.00 0.00 0.00 0.00 0.00 0.00 0.00 0.00 0.00 0.00 0.00 0.01 0.01 0.00 0.00 0.01 0.01 0.01 0.01 0.01 0.01
0.04 0.04 0.03 0.02 0.01 0.00 0.01 0.01 0.01 0.02 0.02 0.02 0.01 0.00 0.00 0.01 0.01 0.01 0.01 0.01 0.01 0.01 0.00 0.00 0.00 0.00 0.00 0.00 0.00 0.00 0.00 0.00 0.00 0.00 0.00 0.00 0.00 0.00 0.00 0.01 0.01 0.01 0.01 0.01
0.05 0.06 0.03 0.01 0.01 0.01 0.01 0.01 0.01 0.02 0.03 0.02 0.01 0.01 0.00 0.00 0.01 0.01 0.01 0.01 0.01 0.01 0.01 0.01 0.01 0.01 0.01 0.01 0.00 0.00 0.00 0.00 0.00 0.00 0.00 0.00 0.00 0.00 0.00 0.01 0.01 0.01 0.01 0.01
0.04 0.05 0.03 0.01 0.01 0.01 0.01 0.01 0.01 0.02 0.02 0.01 0.01 0.01 0.01 0.01 0.01 0.01 0.01 0.01 0.01 0.00 0.00 0.01 0.01 0.01 0.01 0.01 0.00 0.00 0.00 0.00 0.00 0.00 0.00 0.00 0.00 0.00 0.00 0.01 0.01 0.01 0.01 0.01
0.03 0.03 0.02 0.02 0.01 0.02 0.03 0.02 0.02 0.01 0.02 0.02 0.01 0.01 0.01 0.01 0.01 0.01 0.01 0.01 0.01 0.01 0.00 0.01 0.01 0.01 0.01 0.01 0.00 0.00 0.00 0.01 0.01 0.00 0.00 0.00 0.00 0.00 0.00 0.00 0.00 0.00 0.01 0.01
0.02 0.02 0.01 0.01 0.01 0.01 0.01 0.01 0.01 0.01 0.01 0.01 0.01 0.01 0.01 0.01 0.01 0.01 0.01 0.01 0.01 0.00 0.00 0.00 0.01 0.01 0.01 0.01 0.01 0.00 0.00 0.00 0.00 0.00 0.00 0.00 0.00 0.00 0.00 0.00 0.00 0.00 0.00 0.01
0.02 0.02 0.02 0.01 0.01 0.01 0.01 0.00 0.00 0.01 0.01 0.01 0.01 0.01 0.01 0.01 0.01 0.01 0.01 0.01 0.01 0.00 0.00 0.00 0.00 0.01 0.01 0.01 0.01 0.01 0.00 0.00 0.00 0.00 0.00 0.00 0.00 0.00 0.00 0.00 0.00 0.00 0.00 0.00
0.01 0.02 0.03 0.02 0.01 0.00 0.00 0.00 0.00 0.00 0.01 0.01 0.01 0.01 0.01 0.01 0.01 0.01 0.01 0.01 0.00 0.01 0.00 0.00 0.00 0.00 0.00 0.00 0.01 0.01 0.01 0.01 0.00 0.01 0.01 0.01 0.01 0.01 0.01 0.01 0.01 0.01 0.01 0.01
0.01 0.02 0.04 0.03 0.02 0.00 0.00 0.00 0.00 0.00 0.01 0.01 0.01 0.01 0.00 0.01 0.01 0.00 0.00 0.00 0.00 0.00 0.00 0.00 0.00 0.00 0.00 0.00 0.01 0.01 0.01 0.01 0.01 0.01 0.01 0.01 0.01 0.01 0.01 0.01 0.01 0.01 0.01 0.01
0.02 0.03 0.04 0.03 0.02 0.01 0.01 0.00 0.00 0.01 0.01 0.01 0.01 0.01 0.01 0.01 0.01 0.01 0.00 0.00 0.00 0.00 0.00 0.00 0.00 0.00 0.00 0.00 0.00 0.01 0.01 0.01 0.01 0.01 0.01 0.01 0.01 0.01 0.01 0.01 0.01 0.01 0.01 0.01
0.01 0.01 0.02 0.03 0.04 0.02 0.01 0.01 0.01 0.02 0.01 0.01 0.01 0.01 0.01 0.01 0.00 0.00 0.00 0.00 0.00 0.00 0.00 0.00 0.00 0.00 0.00 0.01 0.01 0.01 0.01 0.01 0.01 0.01 0.01 0.01 0.01 0.01 0.01 0.01 0.01 0.01 0.01 0.01
0.02 0.02 0.01 0.02 0.03 0.03 0.02 0.02 0.02 0.02 0.01 0.01 0.01 0.01 0.01 0.01 0.00 0.00 0.00 0.00 0.00 0.00 0.00 0.00 0.00 0.00 0.01 0.01 0.01 0.01 0.01 0.01 0.01 0.01 0.01 0.01 0.01 0.01 0.01 0.01 0.01 0.01 0.02 0.01
0.01 0.01 0.01 0.02 0.03 0.02 0.02 0.02 0.02 0.01 0.01 0.01 0.01 0.01 0.01 0.01 0.00 0.00 0.00 0.00 0.00 0.00 0.00 0.00 0.00 0.01 0.01 0.01 0.01 0.01 0.01 0.01 0.01 0.01 0.01 0.01 0.01 0.01 0.01 0.01 0.01 0.01 0.01 0.02
0.00 0.00 0.01 0.01 0.01 0.01 0.01 0.01 0.01 0.01 0.01 0.01 0.01 0.01 0.01 0.01 0.01 0.01 0.01 0.01 0.01 0.01 0.01 0.01 0.01 0.01 0.01 0.01 0.01 0.01 0.01 0.01 0.01 0.01 0.01 0.01 0.01 0.01 0.01 0.01 0.01 0.01 0.01 0.02
0.00 0.00 0.01 0.01 0.00 0.00 0.00 0.00 0.00 0.00 0.00 0.00 0.01 0.01 0.01 0.01 0.01 0.01 0.01 0.01 0.01 0.01 0.01 0.01 0.01 0.01 0.01 0.01 0.01 0.00 0.00 0.00 0.01 0.01 0.01 0.01 0.01 0.01 0.01 0.01 0.01 0.01 0.02 0.01
MSLP
1020.25 1020.34 1020.41 1020.47 1020.49 1020.48 1020.41 1020.28 1020.06 1019.76 1019.36 1018.89 1018.35 1017.76 1017.17 1016.60 1016.09 1015.66 1015.34 1015.13 1015.03 1015.05 1015.16 1015.37 1015.67 1016.05 1016.51 1017.04 1017.63 1018.26 1018.93 1019.62 1020.29 1020.93 1021.52 1022.06 1022.54 1022.97 1023.35 1023.70 1024.03 1024.35 1024.68 1025.03
1020.25 1020.27 1020.27 1020.28 1020.29 1020.29 1020.27 1020.19 1020.02 1019.75 1019.36 1018.86 1018.24 1017.56 1016.84 1016.14 1015.49 1014.94 1014.51 1014.22 1014.06 1014.03 1014.11 1014.31 1014.60 1014.97 1015.43 1015.96 1016.56 1017.22 1017.93 1018.65 1019.37 1020.06 1020.70 1021.29 1021.81 1022.28 1022.69 1023.07 1023.43 1023.79 1024.16 1024.53
1020.28 1020.21 1020.15 1020.13 1020.13 1020.16 1020.19 1020.16 1020.05 1019.81 1019.41 1018.86 1018.16 1017.35 1016.48 1015.62 1014.82 1014.13 1013.58 1013.18 1012.95 1012.86 1012.91 1013.07 1013.34 1013.71 1014.16 1014.71 1015.34 1016.03 1016.78 1017.56 1018.34 1019.09 1019.79 1020.43 1020.99 1021.50 1021.95 1022.36 1022.76 1023.15 1023.55 1023.97
1020.36 1020.23 1020.12 1020.08 1020.09 1020.16 1020.23 1020.26 1020.19 1019.95 1019.52 1018.89 1018.08 1017.12 1016.08 1015.04 1014.07 1013.22 1012.53 1012.03 1011.70 1011.55 1011.55 1011.68 1011.92 1012.28 1012.74 1013.30 1013.95 1014.69 1015.50 1016.34 1017.19 1018.01 1018.77 1019.46 1020.08 1020.61 1021.10 1021.55 1021.98 1022.41 1022.86 1023.32
1020.52 1020.35 1020.23 1020.18 1020.21 1020.32 1020.44 1020.50 1020.44 1020.18 1019.69 1018.95 1017.98 1016.85 1015.62 1014.39 1013.23 1012.22 1011.40 1010.78 1010.37 1010.15 1010.09 1010.18 1010.40 1010.74 1011.20 1011.77 1012.46 1013.25 1014.12 1015.03 1015.95 1016.84 1017.67 1018.41 1019.07 1019.64 1020.15 1020.63 1021.10 1021.58 1022.07 1022.57
1020.76 1020.57 1020.45 1020.42 1020.49 1020.63 1020.78 1020.86 1020.78 1020.46 1019.87 1018.99 1017.86 1016.54 1015.11 1013.69 1012.36 1011.20 1010.25 1009.53 1009.03 1008.74 1008.63 1008.68 1008.86 1009.18 1009.63 1010.22 1010.93 1011.77 1012.70 1013.68 1014.67 1015.63 1016.51 1017.30 1018.00 1018.61 1019.15 1019.65 1020.15 1020.66 1021.20 1021.76
1021.01 1020.84 1020.74 1020.75 1020.86 1021.04 1021.21 1021.28 1021.15 1020.75 1020.03 1018.99 1017.68 1016.17 1014.56 1012.97 1011.50 1010.21 1009.16 1008.36 1007.80 1007.46 1007.30 1007.30 1007.44 1007.73 1008.16 1008.74 1009.47 1010.33 1011.31 1012.35 1013.40 1014.42 1015.36 1016.20 1016.93 1017.56 1018.12 1018.65 1019.17 1019.72 1020.29 1020.90
1021.19 1021.06 1021.02 1021.08 1021.24 1021.45 1021.63 1021.66 1021.46 1020.95 1020.09 1018.90 1017.42 1015.75 1014.00 1012.28 1010.71 1009.35 1008.24 1007.39 1006.79 1006.41 1006.20 1006.16 1006.25 1006.49 1006.88 1007.43 1008.15 1009.02 1010.02 1011.10 1012.20 1013.27 1014.26 1015.14 1015.90 1016.55 1017.13 1017.67 1018.21 1018.77 1019.39 1020.04
1021.23 1021.16 1021.18 1021.31 1021.52 1021.76 1021.92 1021.91 1021.62 1021.00 1020.01 1018.68 1017.07 1015.28 1013.43 1011.65 1010.04 1008.66 1007.54 1006.69 1006.08 1005.67 1005.43 1005.33 1005.37 1005.54 1005.87 1006.37 1007.05 1007.91 1008.91 1010.00 1011.13 1012.23 1013.25 1014.16 1014.95 1015.62 1016.20 1016.75 1017.29 1017.87 1018.50 1019.18
1021.07 1021.07 1021.17 1021.36 1021.62 1021.86 1022.00 1021.93 1021.56 1020.83 1019.73 1018.29 1016.59 1014.74 1012.87 1011.09 1009.51 1008.16 1007.09 1006.28 1005.69 1005.28 1005.01 1004.86 1004.83 1004.92 1005.17 1005.60 1006.21 1007.02 1007.99 1009.07 1010.20 1011.32 1012.36 1013.29 1014.09 1014.77 1015.36 1015.90 1016.44 1017.01 1017.64 1018.34
1020.72 1020.79 1020.95 1021.20 1021.49 1021.73 1021.83 1021.69 1021.22 1020.39 1019.20 1017.70 1015.97 1014.12 1012.29 1010.59 1009.09 1007.85 1006.87 1006.13 1005.58 1005.19 1004.90 1004.71 1004.60 1004.61 1004.77 1005.10 1005.63 1006.36 1007.28 1008.32 1009.43 1010.53 1011.57 1012.51 1013.32 1014.00 1014.59 1015.12 1015.65 1016.20 1016.82 1017.50
1020.25 1020.38 1020.60 1020.89 1021.17 1021.38 1021.41 1021.18 1020.62 1019.70 1018.44 1016.91 1015.19 1013.41 1011.67 1010.09 1008.73 1007.63 1006.77 1006.13 1005.65 1005.29 1004.99 1004.76 1004.59 1004.52 1004.58 1004.81 1005.25 1005.89 1006.73 1007.71 1008.76 1009.84 1010.86 1011.78 1012.59 1013.27 1013.86 1014.38 1014.89 1015.42 1016.01 1016.67
1019.81 1019.98 1020.22 1020.50 1020.74 1020.88 1020.81 1020.46 1019.79 1018.79 1017.48 1015.94 1014.27 1012.58 1010.98 1009.55 1008.36 1007.42 1006.70 1006.17 1005.76 1005.44 1005.16 1004.90 1004.68 1004.54 1004.52 1004.66 1005.00 1005.55 1006.29 1007.19 1008.17 1009.19 1010.17 1011.07 1011.86 1012.54 1013.12 1013.64 1014.14 1014.65 1015.21 1015.83
1019.53 1019.70 1019.93 1020.15 1020.30 1020.31 1020.10 1019.61 1018.81 1017.72 1016.36 1014.84 1013.23 1011.65 1010.19 1008.94 1007.91 1007.13 1006.55 1006.12 1005.80 1005.52 1005.25 1004.99 1004.75 1004.56 1004.48 1004.55 1004.81 1005.27 1005.91 1006.71 1007.61 1008.55 1009.47 1010.32 1011.09 1011.77 1012.35 1012.88 1013.38 1013.88 1014.41 1014.99
1019.49 1019.64 1019.80 1019.91 1019.92 1019.76 1019.37 1018.71 1017.76 1016.56 1015.16 1013.65 1012.11 1010.64 1009.33 1008.23 1007.37 1006.72 1006.27 1005.94 1005.68 1005.45 1005.21 1004.96 1004.71 1004.52 1004.41 1004.43 1004.63 1005.00 1005.55 1006.24 1007.04 1007.88 1008.72 1009.52 1010.26 1010.92 1011.52 1012.06 1012.58 1013.09 1013.62 1014.17
1019.73 1019.82 1019.86 1019.82 1019.64 1019.26 1018.65 1017.79 1016.69 1015.38 1013.94 1012.44 1010.97 1009.62 1008.44 1007.48 1006.75 1006.23 1005.86 1005.60 1005.40 1005.21 1005.00 1004.78 1004.56 1004.37 1004.26 1004.27 1004.42 1004.72 1005.18 1005.76 1006.44 1007.17 1007.91 1008.64 1009.34 1009.99 1010.61 1011.18 1011.74 1012.28 1012.83 1013.38
1020.14 1020.14 1020.04 1019.81 1019.41 1018.79 1017.95 1016.89 1015.63 1014.23 1012.76 1011.28 1009.89 1008.64 1007.59 1006.76 1006.14 1005.70 1005.40 1005.19 1005.02 1004.86 1004.68 1004.49 1004.30 1004.15 1004.06 1004.06 1004.18 1004.43 1004.80 1005.28 1005.83 1006.43 1007.07 1007.71 1008.35 1008.99 1009.62 1010.23 1010.84 1011.44 1012.03 1012.60
1020.55 1020.44 1020.18 1019.74 1019.11 1018.26 1017.21 1015.97 1014.58 1013.12 1011.64 1010.23 1008.93 1007.80 1006.88 1006.16 1005.63 1005.25 1004.99 1004.81 1004.65 1004.49 1004.33 1004.17 1004.02 1003.90 1003.83 1003.85 1003.95 1004.15 1004.43 1004.79 1005.21 1005.69 1006.20 1006.74 1007.32 1007.93 1008.56 1009.22 1009.88 1010.55 1011.19 1011.81
1020.71 1020.49 1020.07 1019.45 1018.61 1017.56 1016.34 1014.97 1013.52 1012.04 1010.62 1009.30 1008.13 1007.15 1006.36 1005.75 1005.31 1004.99 1004.75 1004.56 1004.40 1004.23 1004.07 1003.92 1003.79 1003.69 1003.65 1003.67 1003.75 1003.89 1004.09 1004.34 1004.63 1004.97 1005.35 1005.78 1006.28 1006.84 1007.46 1008.14 1008.85 1009.57 1010.28 1010.94
1020.42 1020.09 1019.54 1018.76 1017.77 1016.59 1015.26 1013.84 1012.39 1010.98 1009.67 1008.50 1007.50 1006.69 1006.06 1005.58 1005.23 1004.96 1004.73 1004.53 1004.34 1004.15 1003.96 1003.79 1003.66 1003.57 1003.53 1003.54 1003.59 1003.68 1003.80 1003.94 1004.10 1004.30 1004.55 1004.86 1005.26 1005.75 1006.34 1007.01 1007.74 1008.49 1009.24 1009.95
1019.55 1019.14 1018.49 1017.62 1016.54 1015.30 1013.95 1012.55 1011.18 1009.91 1008.77 1007.80 1007.01 1006.41 1005.95 1005.62 1005.36 1005.14 1004.93 1004.71 1004.48 1004.24 1004.01 1003.81 1003.64 1003.53 1003.47 1003.45 1003.47 1003.51 1003.54 1003.59 1003.64 1003.71 1003.82 1004.02 1004.30 1004.70 1005.22 1005.85 1006.55 1007.31 1008.06 1008.79
1018.09 1017.63 1016.94 1016.04 1014.95 1013.72 1012.43 1011.14 1009.91 1008.82 1007.90 1007.17 1006.62 1006.23 1005.96 1005.77 1005.62 1005.45 1005.26 1005.02 1004.74 1004.45 1004.16 1003.89 1003.68 1003.53 1003.43 1003.37 1003.34 1003.32 1003.30 1003.26 1003.21 1003.18 1003.18 1003.25 1003.43 1003.72 1004.14 1004.68 1005.32 1006.02 1006.75 1007.46
1016.19 1015.72 1015.04 1014.17 1013.13 1011.99 1010.82 1009.68 1008.65 1007.77 1007.08 1006.57 1006.25 1006.07 1005.98 1005.93 1005.86 1005.75 1005.56 1005.31 1004.99 1004.63 1004.28 1003.95 1003.67 1003.46 1003.31 1003.21 1003.14 1003.08 1003.00 1002.90 1002.79 1002.68 1002.60 1002.57 1002.64 1002.82 1003.12 1003.55 1004.08 1004.68 1005.32 1005.98
1014.10 1013.66 1013.04 1012.24 1011.32 1010.31 1009.29 1008.33 1007.49 1006.81 1006.32 1006.02 1005.88 1005.86 1005.90 1005.95 1005.96 1005.88 1005.70 1005.43 1005.06 1004.65 1004.23 1003.84 1003.50 1003.23 1003.03 1002.88 1002.78 1002.69 1002.59 1002.47 1002.33 1002.18 1002.05 1001.95 1001.93 1001.99 1002.18 1002.47 1002.86 1003.33 1003.87 1004.43
1012.13 1011.75 1011.22 1010.54 1009.75 1008.90 1008.04 1007.24 1006.56 1006.04 1005.69 1005.52 1005.49 1005.55 1005.67 1005.77 1005.80 1005.73 1005.54 1005.23 1004.84 1004.38 1003.90 1003.45 1003.05 1002.73 1002.49 1002.32 1002.20 1002.10 1002.01 1001.90 1001.77 1001.62 1001.47 1001.34 1001.26 1001.24 1001.31 1001.47 1001.72 1002.05 1002.44 1002.89
1010.57 1010.28 1009.86 1009.32 1008.68 1007.97 1007.26 1006.58 1006.01 1005.57 1005.28 1005.13 1005.11 1005.18 1005.27 1005.35 1005.35 1005.24 1005.02 1004.68 1004.24 1003.74 1003.22 1002.73 1002.29 1001.94 1001.67 1001.48 1001.36 1001.27 1001.21 1001.14 1001.05 1000.95 1000.82 1000.70 1000.60 1000.53 1000.51 1000.56 1000.68 1000.87 1001.13 1001.46
Thickness
5554 5548 5548 5555 5558 5565 5565 5565 5567 5574 5579 5576 5574 5579 5587 5589 5587 5586 5587 5587 5588 5590 5590 5588 5587 5586 5585 5584 5584 5584 5584 5584 5584 5584 5584 5584 5584 5583 5582 5582 5582 5581 5580 5578
5541 5542 5552 5553 5554 5555 5555 5555 5558 5566 5571 5570 5566 5571 5580 5583 5585 5586 5585 5585 5585 5584 5582 5582 5580 5579 5579 5579 5579 5578 5578 5578 5578 5580 5580 5579 5578 5577 5576 5576 5575 5574 5573 5571
5539 5545 5548 5547 5546 5546 5547 5547 5552 5555 5560 5562 5558 5565 5574 5579 5581 5582 5582 5582 5581 5581 5578 5576 5575 5573 5573 5573 5573 5574 5572 5572 5572 5573 5572 5571 5569 5570 5569 5569 5568 5567 5566 5564
5530 5536 5539 5539 5540 5542 5543 5548 5549 5549 5545 5542 5550 5545 5566 5571 5572 5576 5576 5575 5575 5576 5574 5572 5570 5568 5567 5567 5567 5567 5566 5565 5565 5565 5564 5564 5564 5564 5564 5564 5562 5561 5559 5557
5524 5528 5530 5532 5536 5536 5537 5541 5541 5542 5537 5533 5538 5536 5555 5563 5566 5570 5571 5570 5570 5569 5568 5567 5565 5564 5562 5561 5560 5560 5559 5559 5558 5558 5558 5558 5558 5557 5556 5555 5555 5553 5551 5550
5517 5521 5523 5526 5529 5530 5530 5529 5527 5522 5520 5522 5535 5531 5545 5550 5564 5567 5567 5565 5563 5561 5560 5559 5558 5556 5554 5553 5553 5553 5552 5552 5551 5551 5551 5550 5550 5549 5548 5547 5547 5545 5544 5543
5509 5512 5514 5517 5518 5520 5521 5514 5504 5502 5498 5512 5529 5528 5538 5553 5558 5561 5560 5557 5553 5552 5550 5549 5549 5548 5547 5546 5545 5546 5546 5545 5544 5544 5543 5544 5543 5543 5542 5541 5540 5538 5537 5536
5499 5504 5506 5506 5511 5509 5510 5512 5504 5499 5498 5507 5520 5520 5537 5549 5550 5551 5550 5547 5544 5541 5540 5540 5540 5539 5538 5538 5538 5537 5538 5538 5537 5537 5537 5536 5536 5535 5535 5534 5534 5532 5531 5530
5493 5499 5500 5500 5503 5505 5502 5500 5506 5496 5485 5490 5507 5514 5531 5542 5541 5539 5538 5535 5533 5531 5531 5530 5530 5529 5529 5529 5529 5529 5530 5530 5529 5529 5529 5528 5528 5528 5528 5527 5526 5525 5524 5523
5493 5490 5491 5490 5493 5495 5497 5496 5487 5485 5483 5488 5508 5515 5523 5532 5532 5529 5527 5525 5524 5522 5521 5521 5520 5520 5520 5521 5521 5521 5521 5521 5521 5521 5521 5521 5520 5520 5520 5519 5518 5517 5516 5515
5485 5481 5477 5477 5479 5485 5484 5485 5485 5480 5479 5484 5492 5513 5522 5524 5524 5520 5518 5516 5514 5513 5512 5511 5511 5511 5511 5511 5511 5512 5512 5512 5511 5511 5511 5511 5511 5512 5512 5511 5510 5509 5507 5506
5476 5469 5466 5470 5474 5477 5480 5483 5480 5480 5473 5477 5489 5500 5517 5514 5513 5511 5509 5508 5506 5504 5502 5501 5501 5501 5501 5501 5502 5502 5502 5503 5503 5502 5502 5502 5501 5501 5501 5501 5500 5499 5498 5496
5467 5461 5458 5465 5464 5463 5467 5473 5476 5475 5471 5467 5474 5494 5506 5503 5501 5502 5500 5498 5495 5493 5492 5491 5490 5490 5491 5491 5491 5492 5493 5493 5493 5492 5491 5491 5491 5491 5491 5491 5490 5489 5487 5486
5463 5454 5458 5468 5474 5466 5461 5464 5466 5465 5462 5463 5476 5487 5494 5493 5491 5490 5489 5487 5485 5483 5482 5481 5480 5480 5481 5481 5481 5481 5482 5482 5482 5482 5481 5481 5481 5481 5480 5480 5480 5478 5477 5475
5446 5442 5442 5451 5457 5454 5452 5453 5453 5459 5464 5467 5479 5475 5485 5484 5482 5480 5478 5476 5474 5474 5473 5473 5472 5471 5470 5470 5470 5471 5471 5471 5471 5471 5471 5470 5470 5469 5469 5469 5468 5467 5466 5465
5428 5428 5427 5432 5443 5441 5440 5443 5441 5445 5449 5453 5457 5462 5470 5470 5467 5466 5465 5465 5465 5464 5463 5462 5462 5461 5460 5460 5459 5459 5459 5459 5459 5459 5459 5458 5458 5457 5457 5457 5456 5456 5455 5454
5411 5410 5412 5417 5420 5423 5423 5441 5443 5438 5439 5446 5453 5462 5459 5455 5454 5454 5454 5453 5453 5453 5452 5450 5450 5449 5448 5448 5448 5447 5447 5446 5446 5446 5446 5446 5446 5446 5445 5445 5444 5444 5443 5442
5401 5399 5392 5390 5397 5408 5444 5446 5445 5441 5438 5435 5440 5445 5445 5445 5443 5442 5441 5440 5440 5439 5438 5437 5436 5435 5434 5435 5435 5435 5434 5433 5433 5433 5432 5433 5433 5433 5432 5432 5431 5431 5430 5429
5398 5394 5380 5376 5383 5399 5423 5427 5422 5423 5426 5424 5427 5430 5429 5429 5430 5428 5426 5426 5426 5425 5424 5423 5422 5422 5421 5421 5421 5421 5420 5419 5419 5419 5419 5419 5419 5419 5419 5418 5418 5417 5416 5416
5382 5383 5375 5367 5378 5387 5421 5416 5413 5417 5414 5413 5413 5415 5414 5414 5416 5418 5415 5412 5411 5410 5409 5408 5407 5406 5406 5406 5406 5406 5405 5405 5405 5405 5405 5405 5405 5406 5406 5405 5405 5404 5403 5403
5358 5359 5360 5360 5365 5381 5394 5396 5403 5403 5407 5399 5399 5399 5398 5397 5400 5399 5398 5397 5396 5395 5394 5393 5392 5391 5391 5390 5390 5390 5390 5390 5390 5390 5390 5390 5390 5391 5391 5391 5390 5390 5389 5389
5355 5349 5346 5347 5354 5375 5379 5379 5383 5385 5384 5383 5381 5380 5380 5379 5379 5380 5380 5380 5380 5379 5378 5377 5376 5375 5374 5374 5374 5375 5374 5375 5374 5374 5375 5375 5375 5376 5376 5376 5375 5375 5374 5373
5349 5356 5355 5358 5367 5365 5360 5363 5364 5365 5365 5365 5364 5363 5362 5363 5363 5364 5365 5364 5363 5363 5362 5360 5359 5359 5358 5357 5358 5359 5359 5358 5358 5358 5359 5360 5360 5360 5360 5360 5360 5359 5358 5357
5333 5336 5340 5338 5345 5346 5345 5345 5345 5346 5347 5347 5347 5347 5347 5347 5348 5349 5349 5348 5346 5345 5344 5343 5342 5342 5342 5341 5341 5341 5341 5340 5341 5342 5343 5344 5344 5345 5344 5345 5345 5344 5344 5343
5323 5319 5323 5325 5331 5329 5331 5330 5330 5330 5328 5328 5329 5330 5330 5331 5332 5332 5332 5331 5329 5329 5327 5326 5325 5326 5326 5325 5325 5324 5323 5323 5324 5326 5327 5328 5328 5329 5329 5330 5330 5330 5330 5330
5309 5308 5314 5326 5323 5320 5321 5317 5315 5313 5313 5313 5313 5314 5313 5313 5313 5313 5313 5312 5311 5310 5309 5308 5308 5308 5308 5308 5308 5308 5307 5307 5307 5309 5310 5311 5312 5312 5313 5313 5313 5314 5315 5315